AEE392 LGIR-LGRP

Flight info

Callsign AEE392
Flight time 0h 39m
Altitude 23000
Route DELAV N136 LOKNA
Aircraft A21N/M-SDE2E3FGHIRWXY/LB1

Departure

Time 2026-05-06 03:38
Airport Heraklion International Nikos Kazantzakis Airport (LGIR)

Arrival

Time 2026-05-06 04:18
Airport Rhodes International Airport "Diagoras" (LGRP)
Time Latitude Longitude Altitude Speed Heading
2026-05-06 03:13 35.33809 25.17544 96 ft 0 kts 316°
2026-05-06 03:32 35.33820 25.17532 96 ft 5 kts 321°
2026-05-06 03:33 35.33861 25.17507 96 ft 8 kts 346°
2026-05-06 03:33 35.33871 25.17504 96 ft 0 kts 351°
2026-05-06 03:34 35.33886 25.17501 96 ft 4 kts 340°
2026-05-06 03:35 35.33913 25.17456 98 ft 9 kts 282°
2026-05-06 03:35 35.33921 25.17358 96 ft 13 kts 274°
2026-05-06 03:35 35.33930 25.17240 96 ft 15 kts 275°
2026-05-06 03:35 35.33940 25.17105 95 ft 17 kts 275°
2026-05-06 03:36 35.33950 25.16957 97 ft 18 kts 275°
2026-05-06 03:36 35.33960 25.16813 96 ft 17 kts 276°
2026-05-06 03:36 35.34008 25.16685 96 ft 17 kts 305°
2026-05-06 03:36 35.34073 25.16554 97 ft 19 kts 284°
2026-05-06 03:37 35.34089 25.16385 96 ft 20 kts 275°
2026-05-06 03:37 35.34100 25.16217 98 ft 11 kts 266°
2026-05-06 03:37 35.34092 25.16134 97 ft 4 kts 310°
2026-05-06 03:37 35.34106 25.16157 97 ft 5 kts 95°
2026-05-06 03:38 35.34103 25.16187 98 ft 19 kts 97°
2026-05-06 03:38 35.34061 25.16768 95 ft 116 kts 94°
2026-05-06 03:38 35.33971 25.18117 285 ft 187 kts 96°
2026-05-06 03:38 35.33860 25.19744 1489 ft 195 kts 97°
2026-05-06 03:39 35.33744 25.21447 2773 ft 203 kts 97°
2026-05-06 03:39 35.33662 25.22614 3217 ft 213 kts 97°
2026-05-06 03:39 35.33533 25.24486 3884 ft 226 kts 97°
2026-05-06 03:39 35.33401 25.26436 4660 ft 233 kts 97°
2026-05-06 03:40 35.33266 25.28436 5446 ft 239 kts 95°
2026-05-06 03:40 35.33128 25.30480 6251 ft 242 kts 93°
2026-05-06 03:40 35.32988 25.32544 7086 ft 245 kts 92°
2026-05-06 03:40 35.32845 25.34656 7930 ft 246 kts 91°
2026-05-06 03:41 35.32700 25.36752 8751 ft 248 kts 91°
2026-05-06 03:41 35.32554 25.38865 9508 ft 250 kts 91°
2026-05-06 03:41 35.32406 25.41000 10224 ft 253 kts 91°
2026-05-06 03:41 35.32256 25.43158 10901 ft 256 kts 91°
2026-05-06 03:42 35.32104 25.45344 11571 ft 259 kts 91°
2026-05-06 03:42 35.31948 25.47598 12017 ft 275 kts 91°
2026-05-06 03:42 35.31782 25.50026 12329 ft 297 kts 91°
2026-05-06 03:42 35.31601 25.52636 12627 ft 319 kts 91°
2026-05-06 03:43 35.31405 25.55421 12999 ft 336 kts 91°
2026-05-06 03:43 35.31198 25.58311 13635 ft 344 kts 91°
2026-05-06 03:43 35.30985 25.61251 14350 ft 349 kts 91°
2026-05-06 03:43 35.30770 25.64232 15059 ft 354 kts 91°
2026-05-06 03:44 35.30553 25.67258 15759 ft 359 kts 91°
2026-05-06 03:44 35.30346 25.70324 16433 ft 364 kts 88°
2026-05-06 03:44 35.30593 25.73381 17062 ft 360 kts 69°
2026-05-06 03:44 35.31664 25.76093 17697 ft 351 kts 47°
2026-05-06 03:45 35.33417 25.78087 18299 ft 340 kts 25°
2026-05-06 03:45 35.35561 25.79049 18886 ft 330 kts
2026-05-06 03:45 35.37864 25.79061 19510 ft 327 kts 349°
2026-05-06 03:45 35.40116 25.78618 20108 ft 330 kts 349°
2026-05-06 03:46 35.42407 25.78716 20685 ft 342 kts
2026-05-06 03:46 35.44742 25.79593 21270 ft 350 kts 14°
2026-05-06 03:46 35.47039 25.80667 21837 ft 355 kts 15°
2026-05-06 03:46 35.49334 25.81815 22376 ft 359 kts 16°
2026-05-06 03:47 35.51663 25.82992 22861 ft 364 kts 16°
2026-05-06 03:47 35.54047 25.84186 23063 ft 378 kts 15°
2026-05-06 03:47 35.56472 25.85546 23097 ft 387 kts 24°
2026-05-06 03:47 35.58619 25.87589 23093 ft 396 kts 38°
2026-05-06 03:48 35.60281 25.90347 23081 ft 409 kts 57°
2026-05-06 03:48 35.61354 25.93612 23086 ft 414 kts 65°
2026-05-06 03:48 35.62307 25.96942 23083 ft 413 kts 64°
2026-05-06 03:48 35.63327 26.00237 23081 ft 411 kts 62°
2026-05-06 03:49 35.64406 26.03487 23081 ft 411 kts 61°
2026-05-06 03:49 35.65523 26.06721 23081 ft 411 kts 60°
2026-05-06 03:49 35.66648 26.09957 23080 ft 411 kts 60°
2026-05-06 03:49 35.67778 26.13184 23080 ft 412 kts 60°
2026-05-06 03:50 35.68914 26.16422 23081 ft 412 kts 60°
2026-05-06 03:50 35.70043 26.19667 23081 ft 413 kts 60°
2026-05-06 03:50 35.71169 26.22917 23081 ft 414 kts 60°
2026-05-06 03:50 35.72298 26.26174 23081 ft 414 kts 60°
2026-05-06 03:51 35.73419 26.29386 23079 ft 414 kts 60°
2026-05-06 03:51 35.74570 26.32685 23078 ft 414 kts 60°
2026-05-06 03:51 35.75687 26.35900 23079 ft 414 kts 60°
2026-05-06 03:51 35.76822 26.39166 23079 ft 415 kts 60°
2026-05-06 03:52 35.77954 26.42430 23080 ft 415 kts 60°
2026-05-06 03:52 35.79084 26.45695 23081 ft 415 kts 60°
2026-05-06 03:52 35.80214 26.48967 23080 ft 415 kts 60°
2026-05-06 03:52 35.81345 26.52245 23081 ft 416 kts 60°
2026-05-06 03:53 35.82476 26.55517 23079 ft 416 kts 60°
2026-05-06 03:53 35.83605 26.58795 23081 ft 416 kts 60°
2026-05-06 03:53 35.84766 26.62057 23079 ft 414 kts 57°
2026-05-06 03:53 35.86076 26.65208 23082 ft 413 kts 56°
2026-05-06 03:54 35.87404 26.68343 23081 ft 413 kts 56°
2026-05-06 03:54 35.88731 26.71479 23081 ft 413 kts 56°
2026-05-06 03:54 35.90058 26.74621 23079 ft 413 kts 56°
2026-05-06 03:54 35.91277 26.77843 23079 ft 417 kts 61°
2026-05-06 03:55 35.92363 26.81171 23081 ft 418 kts 62°
2026-05-06 03:55 35.93439 26.84504 23081 ft 419 kts 62°
2026-05-06 03:55 35.94517 26.87846 23081 ft 419 kts 62°
2026-05-06 03:55 35.95593 26.91185 23079 ft 419 kts 62°
2026-05-06 03:56 35.96672 26.94527 23079 ft 419 kts 62°
2026-05-06 03:56 35.97751 26.97871 23073 ft 420 kts 62°
2026-05-06 03:56 35.98831 27.01223 23070 ft 420 kts 62°
2026-05-06 03:56 35.99911 27.04572 23072 ft 420 kts 62°
2026-05-06 03:57 36.00992 27.07926 23072 ft 421 kts 62°
2026-05-06 03:57 36.02073 27.11289 23068 ft 421 kts 62°
2026-05-06 03:57 36.03152 27.14651 23064 ft 421 kts 62°
2026-05-06 03:57 36.04229 27.18012 23061 ft 421 kts 62°
2026-05-06 03:58 36.05306 27.21374 23061 ft 421 kts 62°
2026-05-06 03:58 36.06384 27.24740 23061 ft 421 kts 62°
2026-05-06 03:58 36.07454 27.28090 23030 ft 414 kts 62°
2026-05-06 03:58 36.08487 27.31342 22812 ft 400 kts 62°
2026-05-06 03:59 36.09492 27.34509 22411 ft 393 kts 62°
2026-05-06 03:59 36.10488 27.37627 21927 ft 387 kts 62°
2026-05-06 03:59 36.11507 27.40691 21423 ft 383 kts 61°
2026-05-06 03:59 36.12526 27.43705 20949 ft 378 kts 61°
2026-05-06 04:00 36.13535 27.46691 20477 ft 374 kts 61°
2026-05-06 04:00 36.14529 27.49642 20005 ft 369 kts 61°
2026-05-06 04:00 36.15506 27.52557 19563 ft 364 kts 62°
2026-05-06 04:00 36.16469 27.55431 19129 ft 359 kts 62°
2026-05-06 04:01 36.17409 27.58273 18692 ft 355 kts 64°
2026-05-06 04:01 36.17956 27.61256 18276 ft 359 kts 82°
2026-05-06 04:01 36.17965 27.64332 17881 ft 356 kts 87°
2026-05-06 04:01 36.17888 27.67362 17489 ft 350 kts 88°
2026-05-06 04:02 36.17816 27.70350 17113 ft 344 kts 87°
2026-05-06 04:02 36.17758 27.73279 16740 ft 338 kts 87°
2026-05-06 04:02 36.17708 27.76171 16369 ft 333 kts 87°
2026-05-06 04:02 36.17663 27.79039 16003 ft 336 kts 87°
2026-05-06 04:03 36.17620 27.81961 15650 ft 342 kts 87°
2026-05-06 04:03 36.17574 27.84892 15294 ft 339 kts 87°
2026-05-06 04:03 36.17526 27.87798 14933 ft 336 kts 86°
2026-05-06 04:03 36.17479 27.90679 14561 ft 335 kts 87°
2026-05-06 04:04 36.17431 27.93557 14178 ft 335 kts 87°
2026-05-06 04:04 36.17382 27.96446 13793 ft 335 kts 87°
2026-05-06 04:04 36.17333 27.99332 13424 ft 335 kts 87°
2026-05-06 04:04 36.17283 28.02213 13059 ft 335 kts 87°
2026-05-06 04:05 36.17233 28.05090 12700 ft 335 kts 87°
2026-05-06 04:05 36.17180 28.07970 12307 ft 334 kts 87°
2026-05-06 04:05 36.17294 28.10820 11900 ft 329 kts 78°
2026-05-06 04:05 36.17638 28.13604 11507 ft 326 kts 76°
2026-05-06 04:06 36.18004 28.16354 11127 ft 323 kts 76°
2026-05-06 04:06 36.18364 28.19088 10749 ft 320 kts 77°
2026-05-06 04:06 36.18713 28.21794 10382 ft 317 kts 78°
2026-05-06 04:06 36.19049 28.24451 10130 ft 306 kts 78°
2026-05-06 04:07 36.19373 28.27013 9863 ft 298 kts 78°
2026-05-06 04:07 36.19692 28.29530 9489 ft 295 kts 78°
2026-05-06 04:07 36.20188 28.31975 9082 ft 291 kts 63°
2026-05-06 04:07 36.21337 28.33976 8701 ft 284 kts 44°
2026-05-06 04:08 36.22749 28.35674 8336 ft 282 kts 41°
2026-05-06 04:08 36.24169 28.37336 7977 ft 280 kts 41°
2026-05-06 04:08 36.25568 28.38998 7633 ft 277 kts 42°
2026-05-06 04:08 36.26949 28.40653 7284 ft 275 kts 42°
2026-05-06 04:09 36.28316 28.42297 6913 ft 273 kts 41°
2026-05-06 04:09 36.29837 28.43660 6526 ft 268 kts 22°
2026-05-06 04:09 36.31624 28.44172 6160 ft 263 kts
2026-05-06 04:09 36.33447 28.44294 5795 ft 261 kts
2026-05-06 04:10 36.35258 28.44397 5418 ft 259 kts
2026-05-06 04:10 36.37056 28.44509 5082 ft 257 kts
2026-05-06 04:10 36.38835 28.44627 4727 ft 256 kts
2026-05-06 04:10 36.40609 28.44752 4354 ft 254 kts
2026-05-06 04:11 36.42372 28.44861 4004 ft 253 kts 359°
2026-05-06 04:11 36.44082 28.44477 3631 ft 250 kts 336°
2026-05-06 04:11 36.45461 28.43212 3273 ft 248 kts 310°
2026-05-06 04:11 36.46226 28.41325 3027 ft 243 kts 284°
2026-05-06 04:12 36.46461 28.39310 2982 ft 228 kts 277°
2026-05-06 04:12 36.46609 28.37409 2975 ft 217 kts 277°
2026-05-06 04:12 36.46768 28.35486 2993 ft 229 kts 278°
2026-05-06 04:12 36.46953 28.33488 3006 ft 234 kts 278°
2026-05-06 04:13 36.47082 28.31488 2998 ft 228 kts 268°
2026-05-06 04:13 36.46725 28.29663 3010 ft 206 kts 252°
2026-05-06 04:13 36.46232 28.28086 2973 ft 188 kts 251°
2026-05-06 04:13 36.45779 28.26601 2758 ft 181 kts 252°
2026-05-06 04:14 36.45344 28.25132 2493 ft 182 kts 252°
2026-05-06 04:14 36.44915 28.23668 2193 ft 179 kts 252°
2026-05-06 04:14 36.44507 28.22257 1982 ft 167 kts 252°
2026-05-06 04:14 36.44124 28.20938 1803 ft 158 kts 252°
2026-05-06 04:15 36.43765 28.19689 1618 ft 148 kts 252°
2026-05-06 04:15 36.43444 28.18587 1420 ft 127 kts 252°
2026-05-06 04:15 36.43138 28.17540 1206 ft 131 kts 253°
2026-05-06 04:15 36.42840 28.16470 1071 ft 131 kts 253°
2026-05-06 04:16 36.42532 28.15412 927 ft 132 kts 252°
2026-05-06 04:16 36.42214 28.14323 767 ft 131 kts 252°
2026-05-06 04:16 36.41901 28.13262 602 ft 131 kts 251°
2026-05-06 04:16 36.41586 28.12191 410 ft 133 kts 252°
2026-05-06 04:17 36.41269 28.11111 212 ft 134 kts 251°
2026-05-06 04:17 36.40949 28.10020 44 ft 134 kts 252°
2026-05-06 04:17 36.40658 28.09004 35 ft 111 kts 248°
2026-05-06 04:17 36.40454 28.08314 33 ft 61 kts 246°
2026-05-06 04:18 36.40381 28.08104 33 ft 26 kts 245°
2026-05-06 04:18 36.40260 28.07931 33 ft 26 kts 217°
2026-05-06 04:18 36.40170 28.07880 33 ft 13 kts 156°
2026-05-06 04:18 36.40171 28.07926 33 ft 0 kts 49°